Weather in Avdeyevo

Russia / Republic of Karelia     62°00′47″N   36°03′11″E
temp.,
°C
wind,
m/s
gust,
m/s
humid.,
%
clouds,
%
prec.,
mm/h
press.,
hPa
HPBL,
m
23 january, sat
sat2300:00−13ese4995100 0.5 1006366
03:00−12ese4894100 0.9 1006317
06:00−11ese51095100 1.5 1004349
09:00−11ese4894100 0.3 1005258
12:00−4sse41095100 1.9 1002426
15:000s51096100 1.8 1001531
18:00+1ssw3899100 1.9 1001341
21:00+1sw3999100 1.9 1002390
24 january, sun
sun2400:00+1sw2699100 0.1 1006259
03:00+1sw3894100 0.1 1007343
06:00−3s2497100 0.0 100599
09:00−1sse279799 0.0 1006208
12:000sse3999100 0.3 1006336
15:00+1se410100100 0.1 1007418
18:00+1s410100100 1.1 1004330
21:00+1s410100100 2.8 1005322
25 january, mon
mon2500:00+1s51199100 0.3 1005507
03:00+1sse410100100 0.2 1007368
06:00+1se41099100 0.1 1003354
09:00+1sse412100100 0.4 1006419
12:00+2sse412100100 0.4 1006453
15:00+2s513100100 1.0 1005418
18:00+2s41199100 0.3 1006317
21:00+1s3899100 0.3 1007248
26 january, tue
tue2600:00+1s2799100 0.0 1009242
03:00+1sse2699100 0.2 1009191
06:00+1sse3997100 0.0 1009429
09:00−3sse4897100 0.4 1009429
12:00−2sse4894100 0.1 1009602
15:00−2se2694100 0.1 1009428
18:00−2ese3796100 0.1 1008292
21:00−1ese3797100 0.4 1008321
27 january, wed
wed2700:00−2ese269899 0.6 1007227
03:00−2se269898 0.8 1007210
06:000ese5119495 0.1 1006542
09:00+1e41092100 0.1 1003754
12:00−2ese379454 0.1 1006258
15:00−1sse41097100 2.8 1006732
18:00−1ese41096100 0.7 1003614
21:00−4ese389390 0.1 1001259